User: anonymous   Login
Location: Cicognara
(44.9500°N, 10.4667°E)
Time: 11:09:19
(UTC+00:00)
Language:

Meteor 1-27 - Orbit

View from above orbital plane
View from above orbital plane
View from above satellite
View from above satellite

Ground track
Ground track

The orbit data is extracted from the following two-line orbital elements,

1 09903U 77024A   21259.83697637 -.00000073  00000-0 -49784-4 0  9997
2 09903  81.2503  17.0331 0038512 221.7159 138.1073 14.08258563283405
Epoch (UTC): 16 September 2021 20:05:14
Eccentricity: 0.0038512
inclination: 81.2503°
perigee height: 837 km
apogee height: 893 km
right ascension of ascending node: 17.0331°
argument of perigee: 221.7159°
revolutions per day: 14.08258563
mean anomaly at epoch: 138.1073°
orbit number at epoch: 28340

The dashed part of the orbit path shows where the satellite is in the earth's shadow,  

DLR